Flag for Norway Weather past 2 weeks in Fjerdingby, Norway

Now
35 °F

Low clouds.


Feels Like: 32 °F
Forecast: 27 / 40 °F
Wind: 3 mph from Northeast

Location: Oslo-Blindern

Current Time: Mar 26, 2015 at 8:21:55 PM

Latest Report: Mar 26, 2015 at 7:00 PM


Visibility: 9 mi

Pressure: 29.72 "Hg

Humidity: 92%

Dew point: 33 °F

Location of FjerdingbyLocation

Historic Weather in Fjerdingby — Graph

°F

Fjerdingby temperature yesterday

Maximum temperature yesterday: 41 °F (at 12:00 AM)
Minimum temperature yesterday: 32 °F (at 11:00 PM)
Average temperature yesterday: 36 °F

Past Weeks' High & Low Weather Summary

 TemperatureHumidityPressure
High51 °F (Mar 24, 2:00 PM)100% (Mar 20, 2:00 AM)30.89 "Hg (Mar 20, 2:00 AM)
Low25 °F (Mar 14, 7:00 AM)24% (Mar 21, 4:00 PM)29.44 "Hg (Mar 23, 3:00 PM)
Average38 °F70%30.33 "Hg
* Reported Mar 11 6:00 PM — Mar 26 6:00 PM, Fjerdingby, Weather by CustomWeather, © 2015

Note: Actual official high and low records may vary slightly from our data, if they occured in-between our weather recording intervals... More about our weather records

Advertising

Fjerdingby weather history for previous 24 hours

 ConditionsComfort  
Time TempWeatherWind HumidityBarometerVisibility
6:00 PM
Thu, Mar 26
35 °FChilly.3 mph90%29.71 "HgN/A
5:00 PM35 °FChilly.3 mph88%29.70 "HgN/A
4:00 PM35 °FLow clouds.3 mph89%29.70 "Hg17 mi
3:00 PM34 °FChilly.3 mph91%29.70 "HgN/A
2:00 PM34 °FChilly.3 mph92%29.71 "HgN/A
1:00 PM33 °FSnow. Dense fog.5 mph92%29.73 "Hg0 mi
12:00 PM32 °FChilly.5 mph95%29.75 "HgN/A
11:00 AM30 °FChilly.6 mph96%29.76 "HgN/A
10:00 AM29 °FSnow. Ice fog.7 mph96%29.78 "Hg0 mi
9:00 AM28 °FChilly.7 mph95%29.81 "HgN/A
8:00 AM28 °FChilly.7 mph95%29.83 "HgN/A
7:00 AM27 °FSnow. Ice fog.9 mph93%29.86 "Hg1 mi
6:00 AM27 °FChilly.8 mph93%29.89 "HgN/A
5:00 AM27 °FChilly.10 mph90%29.92 "HgN/A
4:00 AM28 °FSnow. Ice fog.8 mph86%29.97 "Hg1 mi
3:00 AM28 °FChilly.8 mph88%30.01 "HgN/A
2:00 AM28 °FChilly.7 mph90%30.04 "HgN/A
1:00 AM29 °FSnow. Ice fog.5 mph90%30.08 "Hg1 mi
12:00 AM29 °FChilly.3 mph88%30.10 "HgN/A
11:00 PM
Wed, Mar 25
32 °FChilly.5 mph73%30.11 "HgN/A
9:00 PM34 °FChilly.3 mph63%30.12 "HgN/A
8:00 PM34 °FChilly.5 mph68%30.12 "HgN/A
Weather by CustomWeather, © 2015

See weather overviewHow to use our weather pages